Flag for Canada Weather past 2 weeks in Sault Ste. Marie, Ontario, Canada

Now
10 °F

Clear.


Feels Like: 10 °F
Forecast: 7 / 24 °F
Wind: No wind

Location: Sault Ste Marie

Current Time: Dec 18, 2014 at 7:58:39 PM

Latest Report: Dec 18, 2014 at 7:00 PM


Visibility: 15 mi

Pressure: 30.29 "Hg

Humidity: 92%

Dew point: 9 °F

Location of Sault Ste. MarieLocation

Historic Weather in Sault Ste. Marie — Graph

°F

Sault Ste. Marie temperature yesterday

Maximum temperature yesterday: 28 °F (at 12:00 AM)
Minimum temperature yesterday: 21 °F (at 7:00 PM)
Average temperature yesterday: 24 °F

Past Weeks' High & Low Weather Summary

 TemperatureHumidityPressure
High39 °F (Dec 14, 3:00 PM)100% (Dec 8, 5:00 PM)30.78 "Hg (Dec 8, 5:00 PM)
Low-2 °F (Dec 10, 8:00 AM)45% (Dec 11, 2:00 AM)29.75 "Hg (Dec 16, 2:00 PM)
Average27 °F87%30.19 "Hg
* Reported Dec 3 6:00 PM — Dec 18 6:00 PM, Sault Ste. Marie, Weather by CustomWeather, © 2014

Note: Actual official high and low records may vary slightly from our data, if they occured in-between our weather recording intervals... More about our weather records

Advertising

Sault Ste. Marie weather history for previous 24 hours

 ConditionsComfort  
Time TempWeatherWind HumidityBarometerVisibility
6:00 PM
Dec 18
14 °FClear.No wind85%30.28 "Hg15 mi
5:00 PM16 °FClear.3 mph79%30.28 "Hg15 mi
4:00 PM21 °FSunny.8 mph63%30.27 "Hg15 mi
3:00 PM21 °FSunny.8 mph58%30.27 "Hg15 mi
2:00 PM21 °FSunny.3 mph58%30.27 "Hg15 mi
1:00 PM19 °FSunny.6 mph58%30.28 "Hg15 mi
12:00 PM18 °FSunny.7 mph49%30.29 "Hg15 mi
11:00 AM14 °FSunny.2 mph57%30.31 "Hg15 mi
10:00 AM10 °FSunny.2 mph56%30.32 "Hg15 mi
9:00 AM7 °FSunny.6 mph72%30.33 "Hg15 mi
8:00 AM5 °FClear.7 mph92%30.32 "Hg15 mi
7:00 AM7 °FClear.7 mph85%30.31 "Hg15 mi
6:00 AM9 °FClear.5 mph85%30.30 "Hg15 mi
5:00 AM9 °FClear.5 mph85%30.28 "Hg15 mi
4:00 AM10 °FClear.6 mph92%30.26 "Hg15 mi
3:00 AM14 °FClear.7 mph85%30.25 "Hg15 mi
2:00 AM16 °FClear.7 mph93%30.22 "Hg15 mi
1:00 AM18 °FPassing clouds.7 mph86%30.21 "Hg15 mi
12:00 AM19 °FPassing clouds.7 mph86%30.19 "Hg15 mi
11:00 PM
Dec 17
21 °FLight snow. Mostly cloudy.7 mph80%30.18 "Hg10 mi
10:00 PM21 °FLight snow. Overcast.3 mph80%30.16 "Hg8 mi
9:00 PM21 °FLight snow. Mostly cloudy.7 mph80%30.15 "Hg8 mi
8:00 PM21 °FLight snow. Mostly cloudy.6 mph86%30.14 "Hg8 mi
7:00 PM21 °FLight snow. Overcast.9 mph86%30.12 "Hg8 mi
Weather by CustomWeather, © 2014

See weather overviewHow to use our weather pages